This demonstration page uses our WeatherBlox Daily Observations layout. Learn more.

Left ArrowRight Arrow

39.51506, -84.39828

Hourly Observations for December 10, 2018

Temp ( °F °C ) Dew Point ( °F °C ) Humidity (%) Winds ( mph kmh ) Pressure ( in mb ) Visibility ( mi km ) Precip ( " mm )
12:15 am 00:15 Clear 24 -4.3 19 -7.2 80 80 NNE 5 7 30.27 1025 10 16 N/A
12:35 am 00:35 Clear 24 -4.3 19 -7.2 80 80 NNE 3 6 30.27 1025 10 16 N/A
12:55 am 00:55 Clear 24 -4.4 19 -7.3 80 80 N N/A 30.27 1025 10 16 N/A
1:15 am 01:15 Clear 23 -4.8 19 -7.4 82 82 NNE 3 6 30.27 1025 10 16 N/A
1:35 am 01:35 Clear 23 -5.1 18 -7.7 82 82 N N/A 30.27 1025 10 16 N/A
1:55 am 01:55 Clear 23 -5 18 -7.6 82 82 N N/A 30.27 1025 10 16 N/A
2:15 am 02:15 Clear 20 -6.9 16 -8.9 86 86 N N/A 30.30 1026 10 16 N/A
2:35 am 02:35 Clear 19 -7 16 -8.7 88 88 N N/A 30.30 1026 10 16 N/A
2:55 am 02:55 Clear 18 -7.8 15 -9.7 86 86 N N/A 30.30 1026 7 11 N/A
3:15 am 03:15 Clear with Mist and Fog 19 -7.4 17 -8.6 91 91 N N/A 30.33 1027 7 11 N/A
3:35 am 03:35 Clear with Mist and Fog 19 -7 18 -7.8 94 94 N N/A 30.30 1026 5 8 N/A
3:55 am 03:55 Clear with Mist and Fog 19 -7.1 18 -7.9 94 94 N N/A 30.30 1026 5 8 N/A
4:15 am 04:15 Clear with Mist and Fog 18 -7.9 16 -8.8 93 93 N N/A 30.30 1026 5 8 N/A
4:35 am 04:35 Clear with Mist and Fog 18 -7.7 16 -8.7 93 93 N 5 7 30.30 1026 5 8 N/A
4:55 am 04:55 Clear with Mist and Fog 18 -7.8 16 -8.9 92 92 N N/A 30.30 1026 5 8 N/A
5:15 am 05:15 Clear with Mist and Fog 17 -8.3 15 -9.2 93 93 N N/A 30.30 1026 4 6 N/A
5:35 am 05:35 Clear with Mist and Fog 19 -7.3 18 -8 95 95 N N/A 30.30 1026 4 6 N/A
5:55 am 05:55 Clear with Mist and Fog 19 -7.5 17 -8.4 93 93 N N/A 30.30 1026 5 8 N/A
6:15 am 06:15 Clear with Mist and Fog 18 -7.9 16 -8.9 93 93 N N/A 30.30 1026 5 8 N/A
6:35 am 06:35 Clear with Mist and Fog 18 -8 16 -9.1 92 92 N N/A 30.33 1027 5 8 N/A
6:55 am 06:55 Clear with Mist and Fog 19 -7.5 17 -8.6 92 92 N N/A 30.33 1027 5 8 N/A
7:15 am 07:15 Clear with Mist and Fog 18 -7.7 16 -8.9 91 91 N 3 6 30.33 1027 5 8 N/A
7:35 am 07:35 Clear with Mist and Fog 18 -7.6 16 -8.8 91 91 N N/A 30.33 1027 5 8 N/A
7:55 am 07:55 Sunny with Mist and Fog 18 -7.9 15 -9.2 91 91 N N/A 30.33 1027 4 6 N/A
8:15 am 08:15 Sunny with Mist and Fog 18 -7.6 16 -8.8 91 91 N N/A 30.33 1027 4 6 N/A
8:35 am 08:35 Sunny with Mist and Fog 19 -7.5 16 -8.7 91 91 N N/A 30.33 1027 4 6 N/A
8:55 am 08:55 Sunny with Mist and Fog 20 -6.5 18 -7.7 91 91 N 3 6 30.33 1027 4 6 N/A
9:15 am 09:15 Partly Cloudy with Mist and Fog 22 -5.7 19 -7 91 91 NNE 7 11 30.36 1028 4 6 N/A
9:35 am 09:35 Cloudy with Mist and Fog 21 -5.9 20 -6.8 93 93 NNE 6 9 30.36 1028 2 3 N/A
9:55 am 09:55 Cloudy with Mist and Fog 22 -5.8 20 -6.4 96 96 NNE 8 13 30.36 1028 2 2 N/A
10:15 am 10:15 Cloudy with Mist and Fog 22 -5.3 22 -5.8 96 96 NNE 7 11 30.36 1028 1 2 N/A
10:35 am 10:35 Cloudy with Mist and Fog 23 -4.9 22 -5.4 96 96 NE 8 13 30.36 1028 2 2 N/A
10:55 am 10:55 Cloudy with Mist and Fog 24 -4.5 23 -5.2 95 95 NNE 7 11 30.33 1027 2 3 N/A
11:15 am 11:15 Cloudy with Mist and Fog 24 -4.5 22 -5.3 94 94 NE 8 13 30.33 1027 3 4 N/A
11:35 am 11:35 Cloudy with Mist and Fog 24 -4.3 22 -5.4 92 92 ENE 5 7 30.33 1027 3 4 N/A
11:55 am 11:55 Cloudy with Mist and Fog 24 -4.4 22 -5.5 92 92 ENE 3 6 30.33 1027 3 5 N/A
12:15 pm 12:15 Cloudy with Mist and Fog 24 -4.3 22 -5.6 91 91 N N/A 30.33 1027 4 6 N/A
12:35 pm 12:35 Cloudy with Mist and Fog 25 -4 22 -5.3 91 91 ENE 5 7 30.33 1027 4 6 N/A
12:55 pm 12:55 Cloudy with Mist and Fog 25 -3.9 22 -5.3 90 90 N 5 7 30.30 1026 4 6 N/A
1:15 pm 13:15 Cloudy with Mist and Fog 25 -4.1 22 -5.8 88 88 N N/A 30.30 1026 4 6 N/A
1:35 pm 13:35 Cloudy with Mist and Fog 25 -4 22 -5.8 87 87 NNE 5 7 30.30 1026 4 6 N/A
1:55 pm 13:55 Cloudy with Mist and Fog 25 -3.8 22 -5.8 86 86 N 3 6 30.30 1026 4 6 N/A
2:15 pm 14:15 Cloudy with Mist and Fog 25 -3.7 21 -6.1 84 84 N 8 13 30.30 1026 5 8 N/A
2:35 pm 14:35 Cloudy with Mist and Fog 25 -3.7 21 -6.3 82 82 N N/A 30.30 1026 5 8 N/A
2:55 pm 14:55 Cloudy with Haze 26 -3.3 21 -6.1 81 81 N N/A 30.30 1026 5 8 N/A
3:15 pm 15:15 Cloudy with Haze 26 -3.6 20 -6.6 80 80 N N/A 30.30 1026 5 8 N/A
3:35 pm 15:35 Cloudy with Haze 26 -3.2 21 -6.3 79 79 NNE 3 6 30.30 1026 5 8 N/A
3:55 pm 15:55 Cloudy with Haze 26 -3.3 20 -6.4 79 79 W 6 9 30.30 1026 5 8 N/A
4:15 pm 16:15 Cloudy with Haze 26 -3.4 21 -6.2 81 81 W 3 6 30.30 1026 4 6 N/A
4:35 pm 16:35 Cloudy with Haze 26 -3.4 21 -6.2 81 81 N 3 6 30.30 1026 4 6 N/A
4:55 pm 16:55 Cloudy with Haze 26 -3.5 21 -6.3 81 81 ENE 3 6 30.30 1026 4 6 N/A
5:15 pm 17:15 Cloudy with Mist and Fog 25 -3.7 21 -6.3 82 82 N 5 7 30.30 1026 5 8 N/A
5:35 pm 17:35 Mostly Cloudy with Mist and Fog 24 -4.2 20 -6.7 83 83 N 5 7 30.30 1026 5 8 N/A
5:55 pm 17:55 Mostly Cloudy with Mist and Fog 24 -4.2 20 -6.7 83 83 N N/A 30.30 1026 7 11 N/A
6:15 pm 18:15 Cloudy with Mist and Fog 24 -4.2 20 -6.6 84 84 NNE 3 6 30.30 1026 7 11 N/A
6:35 pm 18:35 Cloudy with Mist and Fog 24 -4.2 20 -6.6 84 84 N N/A 30.30 1026 7 11 N/A
6:55 pm 18:55 Cloudy with Mist and Fog 24 -4.2 20 -6.6 84 84 N N/A 30.30 1026 7 11 N/A
7:15 pm 19:15 Cloudy with Mist and Fog 24 -4.4 20 -6.7 84 84 WNW 3 6 30.30 1026 7 11 N/A
7:35 pm 19:35 Cloudy with Mist and Fog 24 -4.7 20 -6.9 85 85 WNW 3 6 30.36 1028 7 11 N/A
7:55 pm 19:55 Cloudy with Mist and Fog 24 -4.5 20 -6.9 84 84 N N/A 30.33 1027 7 11 N/A
8:15 pm 20:15 Cloudy with Mist and Fog 23 -4.9 19 -7 85 85 W 3 6 30.36 1028 5 8 N/A
8:35 pm 20:35 Cloudy with Mist and Fog 22 -5.5 19 -7.1 89 89 WSW 5 7 30.36 1028 5 8 N/A
8:55 pm 20:55 Cloudy with Mist and Fog 23 -5.1 19 -7.1 86 86 N N/A 30.33 1027 5 8 N/A
9:15 pm 21:15 Cloudy with Mist and Fog 23 -5.2 19 -7 87 87 N N/A 30.33 1027 5 8 N/A
9:35 pm 21:35 Cloudy with Mist and Fog 21 -6 19 -7.4 90 90 WSW 5 7 30.33 1027 5 8 N/A
9:55 pm 21:55 Cloudy with Mist and Fog 22 -5.6 19 -7 90 90 N N/A 30.33 1027 5 8 N/A
10:15 pm 22:15 Mostly Cloudy with Mist and Fog 20 -6.9 17 -8.2 91 91 WNW 3 6 30.33 1027 4 6 N/A
10:35 pm 22:35 Cloudy with Mist and Fog 19 -7.1 18 -8 93 93 N N/A 30.33 1027 4 6 N/A
10:55 pm 22:55 Cloudy with Mist and Fog 18 -7.9 16 -8.7 94 94 N N/A 30.33 1027 4 6 N/A
11:15 pm 23:15 Cloudy with Mist and Fog 18 -7.6 17 -8.4 94 94 N N/A 30.33 1027 4 6 N/A
11:35 pm 23:35 Cloudy with Mist and Fog 20 -6.9 18 -7.8 93 93 N N/A 30.33 1027 4 6 N/A
11:55 pm 23:55 Cloudy with Mist and Fog 21 -6.2 19 -7.2 93 93 WSW 3 6 30.33 1027 4 6 N/A

Powered by AerisWeather